Find Starlink 6274

NORAD ID: 56776 Int'l Des: 2023-078 Owner: SPXS Country: US Constellation: starlink operational
LEOCIRCULAR

現在のビュー

3D地球を読み込み中...

About Starlink 6274

Starlink 6274 (NORAD 56776) is a starlink constellation satellite (v1.5) launched May 31, 2023 by SPXS of US. It operates in LEO, CIRCULAR orbit with a mass of 305.00 kg.

Starlink 6274について

説明を読み込み中...

次回通過

Passes for default location (London). Set your location on the main map for personalized predictions.

高度履歴

Loading altitude history...

軌道要素

1 56776U 23078K 26170.79658923 .00000127 00000-0 18439-4 0 9995
2 56776 70.0000 67.1924 0002814 263.3829 96.7010 14.98320907168468
Epoch: Jun 19, 2026 • Age: 15 hours

現在のステータス

高度 578.6 km
速度 7.57 km/s
衛星直下点 41.06°N, 166.46°E
打ち上げ日 May 31, 2023
運用期間 3 years
タイプ internet

技術仕様

分類 Payload
質量 305.00 kg
乾燥質量 290.00 kg
総質量 305.00 kg
長さ 0.20 m
直径 2.80 m
スパン 9.00 m
形状 Box + pan
製造者 SPXS
バスタイプ Starlink
フェーズステータス In Orbit
所有者/国 SPXS/US

Most Searched